#timestamp,LO_Frequency,Hit,StdDev 
1501398015.6,286047000.0,N,1.9
1501398035.4,286046999.9,N,1.8
1501398055.2,286047000.7,N,1.7
1501398075.1,286046998.2,N,1.7
1501398076.0,286046998.2,N,1.7
1501398095.8,286047000.3,N,1.6
1501398115.7,286047001.2,N,1.6
1501398135.5,286047000.8,N,1.6
1501398155.3,286046999.3,N,1.5
1501398175.2,286046998.5,N,1.5
1501398195.0,286046999.0,N,1.5
1501398195.9,286046999.0,N,1.5
1501398215.7,286046996.5,N,1.6
1501398235.6,286046999.1,N,1.6
1501398255.4,286046998.9,N,1.5
1501398275.3,286046999.1,N,1.5
1501398295.1,286046998.1,N,1.5
1501398315.8,286047002.5,N,1.6
1501398335.7,286046998.2,N,1.6
1501398355.5,286046998.2,N,1.6
1501398375.4,286046998.3,N,1.6
1501398395.2,286046999.6,N,1.5
1501398415.0,286046996.5,N,1.6
1501398415.9,286046996.5,N,1.6
1501398435.8,286046999.0,N,1.6
1501398455.6,286046998.8,N,1.6
1501398475.5,286047001.2,N,1.6
1501398495.3,286047000.0,N,1.6
1501398515.1,286047001.1,N,1.5
1501398535.9,286046998.6,N,1.4
1501398555.7,286046999.0,N,1.4
1501398575.6,286046998.9,N,1.4
1501398595.4,286046999.0,N,1.4
1501398615.2,286046999.6,N,1.4
1501398635.1,286046999.3,N,1.3
1501398636.0,286046999.3,N,1.3
1501398655.8,286046998.9,N,1.3
1501398675.7,286046999.2,N,1.2
1501398695.5,286046999.4,N,1.2
1501398715.3,286046996.5,N,1.3
1501398735.2,286046996.6,N,1.4
1501398755.0,286046999.1,N,1.4
1501398755.9,286046999.1,N,1.3
1501398775.8,286046999.3,N,1.3
1501398795.6,286046999.6,N,1.3
1501398815.4,286046998.5,N,1.3
1501398835.3,286047000.9,N,1.3
1501398855.1,286047000.5,N,1.2
1501398875.9,286046999.8,N,1.2
1501398895.7,286047002.8,N,1.4
1501398915.5,286047002.4,N,1.5
1501398935.4,286047002.5,N,1.6
1501398955.2,286047001.6,N,1.5
1501398975.0,286046999.9,N,1.4
1501398975.9,286046999.9,N,1.4
1501398995.8,286047002.4,N,1.5
1501399015.6,286047002.4,N,1.6
1501399035.5,286046999.9,N,1.6
1501399055.3,286047000.1,N,1.5
1501399075.1,286046999.9,N,1.5
1501399095.9,286047000.4,N,1.5
1501399115.7,286047001.0,N,1.5
1501399135.6,286046998.6,N,1.5
1501399155.4,286046998.6,N,1.5
1501399175.2,286046999.2,N,1.5
1501399195.1,286046999.1,N,1.5
1501399196.0,286046999.1,N,1.5
1501399215.8,286046999.6,N,1.5
1501399235.7,286046996.5,N,1.7
1501399255.5,286046996.7,N,1.6
1501399275.3,286046998.0,N,1.6
1501399295.2,286046997.9,N,1.6
1501399315.0,286046997.1,N,1.7
1501399315.9,286046997.1,N,1.7
1501399335.8,286046997.8,N,1.8
1501399355.6,286046995.0,N,2.0
1501399375.4,286046995.4,N,2.1
1501399395.3,286046995.5,N,2.2
1501399415.1,286046995.8,N,2.3
1501399435.8,286046995.1,N,2.3
1501399455.7,286046996.0,N,2.2
1501399475.5,286046996.0,N,2.1
1501399495.4,286046995.4,N,2.1
1501399515.2,286046995.9,N,2.1
1501399535.0,286046995.2,N,2.2
1501399535.9,286046995.2,N,2.0
1501399555.8,286046996.2,N,1.9
1501399575.6,286046994.4,P,1.5
1501399595.5,286046995.2,P,1.3
1501399615.3,286046995.8,P,1.1
1501399635.2,286046995.8,P,0.0
1501399655.9,286046998.1,P,1.1
1501399675.7,286046998.7,N,1.3
1501399695.6,286046999.3,N,1.5
1501399715.4,286046999.2,N,1.5
1501399735.3,286046999.4,N,1.5
1501399755.1,286046996.6,N,1.5
1501399756.0,286046996.6,N,1.4
1501399775.8,286046999.2,N,1.4
1501399795.7,286046999.3,N,1.4
1501399815.5,286046997.2,N,1.4
1501399835.4,286046997.8,N,1.3
1501399855.2,286046997.5,N,1.3
1501399875.0,286046997.6,N,1.3
1501399875.9,286046997.6,N,1.2
1501399895.8,286046997.5,N,1.2
1501399915.6,286046997.8,N,1.1
1501399935.4,286046997.6,N,1.1
1501399955.3,286046996.1,P,0.9
1501399975.1,286046999.4,N,1.3
1501399995.9,286046996.5,N,1.3
1501400015.7,286046996.6,N,1.2
1501400035.5,286046999.2,N,1.3
1501400055.4,286046999.6,N,1.4
1501400075.2,286046999.5,N,1.4
1501400095.1,286046997.3,N,1.4
1501400096.0,286046997.3,N,1.3
1501400115.8,286046997.2,N,1.3
1501400135.7,286046995.4,P,1.2
1501400155.5,286046999.2,N,1.6
1501400175.3,286046996.5,N,1.4
1501400195.2,286046996.8,N,1.3
1501400215.0,286046998.7,N,1.3
1501400215.9,286046998.7,N,1.3
1501400235.8,286047001.2,N,1.7
1501400255.6,286046997.2,N,1.6
1501400275.4,286046996.7,N,1.6
1501400295.3,286046997.4,N,1.5
1501400315.1,286046997.8,N,1.5
1501400335.9,286046997.3,N,1.4
1501400355.7,286046997.5,N,1.4
1501400375.5,286046997.3,N,1.3
1501400395.4,286046994.9,P,1.4
1501400415.2,286047000.9,N,2.5
1501400435.1,286046998.5,N,2.1
1501400436.0,286046998.5,N,1.9
1501400455.8,286046999.4,N,1.8
1501400475.6,286046996.5,N,1.8
1501400495.5,286046999.1,N,1.7
1501400515.3,286046999.2,N,1.7
1501400535.2,286046999.3,N,1.6
1501400555.9,286046996.9,N,1.6
1501400575.7,286046998.5,N,1.5
1501400595.6,286046998.8,N,1.5
1501400615.4,286046999.0,N,1.4
1501400635.2,286046998.1,N,1.4
1501400655.1,286047001.2,N,1.5
1501400656.0,286047001.2,N,1.6
1501400675.8,286046998.1,N,1.5
1501400695.7,286047000.8,N,1.6
1501400715.5,286046998.1,N,1.5
1501400735.3,286046998.2,N,1.5
1501400755.2,286047000.5,N,1.5
1501400775.0,286047000.7,N,1.5
1501400775.9,286047000.7,N,1.6
1501400795.8,286047000.5,N,1.6
1501400815.6,286047000.9,N,1.6
1501400835.4,286047000.4,N,1.6
1501400855.3,286047000.4,N,1.5
1501400875.1,286047000.4,N,1.5
1501400895.9,286047000.3,N,1.5
1501400915.7,286047000.0,N,1.5
1501400935.5,286047000.5,N,1.3
1501400955.4,286047000.5,N,1.3
1501400975.2,286047000.4,N,1.2
1501400995.0,286047002.6,N,1.3
1501400996.0,286047002.6,N,1.4
1501401015.8,286046999.7,N,1.3
1501401035.6,286046999.7,N,1.3
1501401055.5,286047002.5,N,1.4
1501401075.3,286047002.3,N,1.4
1501401095.1,286047002.7,N,1.4
1501401115.9,286047002.5,N,1.4
1501401135.7,286047002.4,N,1.4
1501401155.6,286047002.2,N,1.4
1501401175.4,286047001.4,N,1.3
1501401195.2,286047002.4,N,1.3
1501401215.1,286047002.2,N,1.3
1501401216.0,286047002.2,N,1.2
1501401235.8,286047002.1,N,1.3
1501401255.7,286047002.1,N,1.1
1501401275.5,286047001.8,N,1.0
1501401295.3,286047004.0,P,1.3
1501401315.2,286047002.8,N,1.1
1501401335.0,286047000.1,N,1.5
1501401335.9,286047000.1,N,1.5
1501401355.8,286047000.6,N,1.5
1501401375.6,286047002.4,N,1.4
1501401395.4,286047001.5,N,1.3
1501401415.3,286047001.4,N,1.2
1501401435.1,286047001.6,N,1.2
1501401455.9,286047001.8,N,1.1
1501401475.7,286047004.3,P,1.3
1501401495.5,286047000.2,N,1.7
1501401515.4,286046999.8,N,1.8
1501401535.2,286046999.9,N,1.7
1501401555.0,286047000.2,N,1.6
1501401556.0,286047000.2,N,1.5
1501401575.8,286047000.0,N,1.4
1501401595.6,286046999.8,N,1.4
